Location: The Saddle
(36.8333°N, 80.3417°W)
Time: 01:50:49
(UTC-05:00)

AO-7 - Pass Details

Date: 12 December 2023
Orbit: 1440 x 1458 km, 102.0° (Epoch: 01 March)

Event Time Altitude Azimuth Distance (km) Brightness Sun altitude
Rises 06:15:46 0° 12° (NNE) 4,541 ? -13.4°
Reaches altitude 10° 06:18:36 10° 9° (N) 3,561 ? -12.9°
Maximum altitude 06:26:38 57° 294° (WNW) 1,664 ? -11.4°
Drops below altitude 10° 06:34:40 10° 218° (SW) 3,556 ? -9.9°
Sets 06:37:29 0° 214° (SW) 4,534 ? -9.4°
